DW4885 Weather Reports


Display with metric or nautical units.
time (UTC)temp
F
wind
direction
speed
MPH
gust
MPH
rain 1hr
in
rain 24hr
in
rain mn
in
humidity
%
barometer
mb
20260507075505 38 241 0.0 0.0 0.00 0.87 0.00 98 1006.0
20260507074504 38 241 0.0 0.0 0.00 0.87 0.00 98 1006.0
20260507073504 38 241 0.0 0.0 0.00 0.87 0.00 98 1005.8
20260507073004 38 241 0.0 0.0 0.00 0.87 0.00 98 1005.8
20260507072505 38 241 0.0 0.0 0.00 0.87 0.00 98 1005.7
20260507071504 38 241 0.0 0.0 0.00 0.87 0.00 98 1005.6
20260507071005 38 241 0.0 0.0 0.00 0.87 0.00 98 1005.7
20260507070009 38 241 0.0 0.0 0.00 0.87 0.00 98 1005.8
20260507065504 38 241 0.0 0.0 0.00 0.87 0.00 98 1005.8
20260507064504 38 241 0.0 0.0 0.00 0.88 0.00 98 1005.8
20260507062504 38 25 0.0 0.0 0.00 0.89 0.00 98 1005.9
20260507062004 38 25 0.0 0.0 0.00 0.89 0.00 98 1005.8
20260507061504 38 25 0.0 0.0 0.00 0.89 0.00 98 1005.7
20260507061005 38 25 0.0 0.0 0.00 0.89 0.00 98 1005.7
20260507060004 38 24 0.0 0.0 0.00 0.89 0.00 98 1005.8
20260507055505 38 25 0.0 0.0 0.00 0.90 0.00 98 1005.7
20260507055005 38 25 0.0 0.0 0.00 0.91 0.00 98 1005.8
20260507054505 38 24 0.0 0.0 0.00 0.92 0.00 98 1006.0
20260507053005 38 25 0.0 0.0 0.00 0.94 0.00 98 1006.3
20260507052504 38 24 0.0 0.0 0.00 0.94 0.00 98 1006.3
20260507050505 39 24 0.0 0.0 0.00 0.97 0.00 98 1006.5
20260507045004 39 24 0.0 1.0 0.00 0.97 0.00 98 1006.4
20260507044504 39 335 0.0 0.0 0.00 0.98 0.00 98 1006.6
20260507044004 39 335 0.0 0.0 0.00 0.98 0.00 98 1006.7
20260507043504 39 335 0.0 0.0 0.00 0.98 0.00 98 1006.6
20260507043004 39 335 0.0 0.0 0.00 0.98 0.00 98 1006.6
20260507041503 39 335 0.0 0.0 0.00 1.00 0.00 97 1006.6
20260507040504 40 335 0.0 0.0 0.00 1.01 0.00 97 1006.7
20260507040004 40 335 0.0 3.0 0.00 1.02 0.00 98 1006.6
20260507035004 40 349 1.0 3.0 0.00 1.05 1.02 98 1006.7
20260507033504 40 350 2.0 3.0 0.00 1.08 1.02 98 1006.8
20260507032004 40 300 1.0 3.0 0.00 1.08 1.02 98 1006.7
20260507031504 40 328 0.0 2.0 0.00 1.08 1.02 98 1006.6
20260507030004 40 315 0.0 1.0 0.01 1.09 1.02 98 1006.5
20260507025004 40 303 0.0 2.0 0.02 1.10 1.02 98 1006.5
20260507024004 40 37 0.0 1.0 0.03 1.10 1.02 98 1006.4
20260507023504 40 320 1.0 3.0 0.04 1.10 1.02 98 1006.6
20260507023004 41 93 1.0 2.0 0.04 1.10 1.02 98 1006.5
20260507022004 41 346 1.0 5.0 0.05 1.10 1.02 98 1007.0
20260507021504 41 293 1.0 3.0 0.05 1.10 1.02 98 1007.0
20260507020504 41 328 0.0 1.0 0.05 1.09 1.01 98 1006.9
20260507020004 41 335 0.0 0.0 0.05 1.09 1.01 98 1006.8
20260507014504 41 345 0.0 1.0 0.06 1.08 1.00 98 1006.8
20260507012503 41 351 1.0 3.0 0.04 1.05 0.97 98 1006.7
20260507011004 41 14 1.0 3.0 0.03 1.04 0.96 98 1006.4
20260507005503 41 323 0.0 1.0 0.03 1.03 0.95 98 1006.2
20260507003504 41 359 0.0 3.0 0.03 1.02 0.94 98 1005.9
20260507002503 41 322 0.0 0.0 0.02 1.01 0.93 98 1005.7
20260506235503 41 345 0.0 2.0 0.01 1.00 0.92 97 1005.3
20260506235003 41 316 0.0 2.0 0.01 1.00 0.92 97 1005.4
20260506234504 41 337 1.0 3.0 0.01 1.00 0.92 97 1005.4
20260506233003 41 134 0.0 1.0 0.00 0.99 0.91 97 1005.5
20260506232503 41 294 0.0 2.0 0.00 0.99 0.91 97 1005.4
20260506231503 41 16 1.0 6.0 0.00 0.99 0.91 97 1005.5
20260506230003 41 11 1.0 3.0 0.00 0.99 0.91 97 1005.5
20260506225503 41 2 0.0 2.0 0.00 0.99 0.91 97 1005.3
20260506225003 41 354 1.0 5.0 0.01 0.99 0.91 97 1005.3
20260506224503 41 359 1.0 3.0 0.01 0.99 0.91 97 1005.2
20260506223503 41 347 1.0 2.0 0.01 0.99 0.91 97 1005.0
20260506223003 41 14 2.0 3.0 0.01 0.99 0.91 97 1005.3
20260506222003 41 336 1.0 5.0 0.02 0.99 0.91 97 1005.2
20260506221003 42 309 1.0 3.0 0.03 0.99 0.91 97 1005.3
20260506215503 42 54 1.0 3.0 0.04 0.99 0.91 97 1005.1
20260506214503 41 338 0.0 1.0 0.05 0.98 0.90 97 1005.1
20260506213503 41 332 1.0 3.0 0.06 0.98 0.90 97 1005.2
20260506212004 41 351 2.0 3.0 0.07 0.97 0.89 97 1005.2
20260506211003 41 336 1.0 3.0 0.08 0.97 0.88 97 1005.2
20260506210003 42 2 1.0 3.0 0.07 1.00 0.87 97 1005.1
20260506205003 42 343 0.0 2.0 0.06 0.99 0.86 97 1005.1
20260506204503 42 327 1.0 3.0 0.06 0.98 0.85 97 1005.0
20260506202503 42 264 0.0 3.0 0.03 0.95 0.82 97 1004.6
20260506202003 42 351 1.0 3.0 0.04 0.95 0.82 97 1004.5
20260506201503 42 107 1.0 3.0 0.03 0.94 0.81 97 1004.4
20260506201003 42 319 1.0 2.0 0.02 0.94 0.80 97 1004.5
20260506200503 42 19 2.0 3.0 0.02 0.94 0.80 97 1004.5
20260506195503 42 348 2.0 5.0 0.02 0.94 0.80 97 1004.5
20260506195004 42 4 1.0 3.0 0.02 0.94 0.80 97 1004.5
20260506194503 42 340 1.0 5.0 0.01 0.96 0.79 97 1004.6
20260506194003 42 315 0.0 3.0 0.01 0.99 0.79 97 1004.6
20260506192504 42 319 0.0 2.0 0.02 1.01 0.79 97 1004.6
20260506185503 42 343 1.0 3.0 0.04 1.00 0.78 97 1005.0
20260506184503 42 328 1.0 3.0 0.06 1.00 0.78 97 1005.1
20260506184003 42 8 1.0 3.0 0.07 1.00 0.78 97 1005.2
20260506181503 42 300 1.0 3.0 0.11 0.98 0.76 97 1005.1
20260506180504 42 316 1.0 3.0 0.13 0.98 0.76 97 1005.5
20260506180004 41 306 0.0 1.0 0.15 0.97 0.75 97 1005.6
20260506174503 41 45 0.0 1.0 0.15 0.94 0.72 97 1005.5
20260506173503 41 327 1.0 3.0 0.16 0.92 0.70 97 1006.0
20260506172004 41 4 1.0 3.0 0.15 0.88 0.66 97 1005.3
20260506171004 41 324 1.0 3.0 0.14 0.86 0.64 97 1005.5
20260506170003 41 301 1.0 5.0 0.11 0.82 0.60 97 1005.6
20260506165004 41 316 2.0 3.0 0.11 0.80 0.58 97 1005.5
20260506163503 41 317 3.0 6.0 0.08 0.76 0.54 97 1005.8
20260506163004 41 66 1.0 2.0 0.08 0.75 0.53 97 1005.1
20260506160503 41 335 1.0 3.0 0.06 0.71 0.49 97 1005.3
20260506154003 41 355 2.0 5.0 0.04 0.68 0.46 96 1005.6
20260506152503 42 302 2.0 3.0 0.03 0.66 0.44 96 1006.0
20260506152003 42 321 1.0 3.0 0.04 0.66 0.44 96 1006.1
20260506150003 42 332 0.0 3.0 0.06 0.65 0.43 96 1005.7
20260506143503 41 317 1.0 3.0 0.08 0.64 0.42 96 1005.8
20260506143003 42 12 1.0 3.0 0.07 0.63 0.41 96 1005.9
20260506142503 41 89 0.0 2.0 0.07 0.63 0.41 96 1005.8
20260506141003 41 1 1.0 5.0 0.06 0.61 0.39 96 1006.3
20260506140504 41 322 0.0 1.0 0.06 0.60 0.38 96 1006.2
20260506135503 42 22 1.0 3.0 0.06 0.59 0.37 96 1006.3
20260506135003 41 27 0.0 2.0 0.06 0.58 0.36 96 1006.2
20260506134503 42 80 1.0 3.0 0.06 0.57 0.35 96 1005.8
20260506134003 42 310 0.0 0.0 0.07 0.57 0.35 96 1006.3
20260506133504 42 283 1.0 5.0 0.07 0.56 0.34 96 1006.5
20260506133004 42 334 1.0 2.0 0.08 0.56 0.34 96 1006.1
20260506132503 42 347 1.0 3.0 0.09 0.56 0.34 96 1006.0
20260506132005 42 124 0.0 2.0 0.08 0.55 0.33 96 1006.0
20260506131503 42 83 0.0 3.0 0.09 0.55 0.33 96 1006.0
20260506125004 42 69 0.0 1.0 0.08 0.52 0.30 97 1006.9
20260506123503 42 280 1.0 2.0 0.05 0.49 0.27 96 1007.2
20260506123004 42 316 1.0 3.0 0.04 0.48 0.26 96 1007.3
20260506115004 43 325 1.0 2.0 0.02 0.44 0.22 97 1006.5
20260506114003 44 0 0.0 1.0 0.02 0.44 0.22 97 1006.3
20260506113504 44 346 1.0 2.0 0.02 0.44 0.22 97 1006.5
20260506113004 44 304 0.0 0.0 0.02 0.44 0.22 97 1006.4
20260506112004 44 304 0.0 1.0 0.01 0.43 0.21 97 1006.3
20260506111504 44 304 0.0 2.0 0.01 0.43 0.21 97 1006.2
20260506111004 44 93 0.0 1.0 0.01 0.43 0.21 97 1006.2
20260506110503 44 301 1.0 2.0 0.01 0.43 0.21 97 1006.4
20260506105503 44 259 0.0 1.0 0.01 0.42 0.20 97 1006.3
20260506105004 44 68 0.0 2.0 0.01 0.42 0.20 97 1006.3
20260506104503 44 75 0.0 3.0 0.01 0.42 0.20 97 1006.6
20260506104004 44 314 1.0 3.0 0.01 0.42 0.20 97 1006.9
20260506103504 44 141 0.0 0.0 0.01 0.42 0.20 97 1006.4
20260506103003 44 138 1.0 2.0 0.01 0.42 0.20 97 1006.5
20260506102004 45 96 0.0 2.0 0.01 0.42 0.20 97 1006.7
20260506101503 45 96 0.0 0.0 0.01 0.42 0.20 97 1006.8
20260506100504 45 312 0.0 0.0 0.01 0.42 0.20 97 1006.9
20260506095504 45 312 0.0 0.0 0.01 0.41 0.19 97 1006.9
20260506094504 45 42 0.0 0.0 0.01 0.41 0.19 97 1006.5
20260506084504 45 101 1.0 1.0 0.03 0.40 0.18 97 1006.2
20260506083504 45 11 0.0 1.0 0.02 0.39 0.17 97 1007.2
20260506083004 45 276 0.0 2.0 0.02 0.39 0.17 97 1007.1
20260506081003 45 33 0.0 1.0 0.00 0.37 0.15 97 1006.6